Wind_Speed
32 33 33 33 34 34 35 36 37 37 37 38 39 38 38 38 38 38 38 38 37 38 38 39 39 39 39 40 40 41 41 42 42 43 44 44 44 44 44 44 44 46 46 46
32 33 32 33 33 34 35 35 36 37 37 39 39 39 38 38 38 38 39 39 38 39 39 39 38 39 39 40 41 41 41 42 43 44 44 45 45 46 46 46 46 47 47 47
32 32 32 33 33 34 35 36 36 37 38 38 39 39 38 38 38 38 39 39 39 39 39 39 40 39 39 40 41 41 42 42 43 44 45 45 46 46 46 47 48 48 48 49
31 31 32 32 33 34 34 35 36 37 38 38 38 40 38 38 38 38 38 38 39 39 39 39 40 40 40 40 40 41 41 42 43 43 44 45 46 47 47 47 48 49 50 50
31 31 32 32 33 33 34 34 35 36 37 39 38 39 38 37 37 37 37 38 38 38 38 39 40 39 40 40 40 41 41 42 43 44 44 45 46 46 47 48 49 50 50 51
32 32 33 33 33 34 35 35 36 36 36 38 36 38 38 37 36 36 37 37 37 37 38 38 39 39 39 40 41 41 42 42 43 43 44 45 45 46 47 48 49 49 50 51
32 33 33 34 34 35 35 35 35 36 36 37 35 36 37 36 35 35 35 36 36 37 37 38 38 39 39 40 40 41 41 41 42 43 44 44 45 46 46 47 48 49 50 51
32 32 32 33 33 34 33 34 34 35 37 37 35 36 35 34 35 35 34 35 35 36 37 37 37 38 39 39 40 41 42 42 43 43 43 44 45 45 46 46 48 49 50 51
33 33 32 32 31 32 32 33 33 35 37 37 37 36 35 34 34 34 34 35 35 35 36 36 37 38 38 39 40 41 42 43 43 44 44 44 45 45 45 46 47 48 49 50
33 33 32 32 32 32 33 33 33 33 35 36 37 36 34 34 34 34 35 35 35 35 36 37 37 38 39 40 41 41 42 43 44 45 44 44 44 44 44 45 46 48 49 50
32 32 32 31 32 32 32 32 33 34 35 36 36 35 35 34 35 35 35 35 35 36 36 37 38 39 40 41 42 42 43 43 44 44 44 44 44 44 45 45 46 47 48 49
31 31 31 31 31 31 31 32 32 33 33 35 36 36 35 36 36 36 35 35 35 36 37 37 38 39 40 41 41 42 42 43 43 43 43 43 44 44 44 45 46 47 47 47
30 31 31 30 30 30 30 30 31 33 34 35 35 35 34 35 35 35 35 35 36 36 37 37 38 38 39 40 41 42 42 42 42 42 42 43 44 43 44 45 45 45 46 47
31 31 30 30 30 31 31 30 31 33 34 35 36 35 33 35 35 35 35 35 36 36 37 37 37 38 39 40 40 41 42 42 42 42 42 43 43 44 44 44 45 45 46 47
32 32 31 30 30 31 31 31 31 32 33 35 35 35 33 34 35 35 35 35 35 35 36 37 38 38 39 39 39 40 40 41 41 41 42 43 43 43 44 45 45 46 46 46
33 33 33 31 30 31 32 31 31 32 32 33 34 34 34 34 35 35 36 35 35 36 36 37 37 37 37 37 37 37 38 39 40 41 42 43 43 44 44 45 46 46 46 46
33 33 33 33 31 32 32 30 30 31 31 32 32 32 33 33 34 34 35 36 36 36 36 36 36 36 36 36 36 36 36 37 38 40 42 43 43 43 44 44 45 46 47 48
33 33 33 33 32 32 31 30 29 30 30 31 31 32 33 33 33 34 34 35 36 36 35 35 35 35 35 35 35 35 36 36 37 39 40 41 42 42 43 44 45 46 47 47
31 31 31 32 32 33 30 30 30 30 30 30 31 32 32 33 33 34 35 35 34 34 33 33 33 33 33 34 35 35 36 36 36 37 38 39 41 42 42 44 45 45 46 47
29 29 30 31 32 32 31 30 31 31 31 31 31 31 32 32 33 33 34 34 33 32 32 33 32 32 33 33 34 34 35 36 36 37 38 38 39 40 42 43 44 44 46 47
28 29 29 29 31 31 31 31 31 31 31 31 31 31 32 32 32 32 33 32 32 32 32 32 33 33 33 34 34 34 34 35 35 36 37 38 39 40 40 41 42 43 44 46
28 28 28 28 29 29 28 29 30 30 31 30 30 30 31 32 32 32 32 32 32 32 32 32 32 33 33 33 34 34 35 35 36 36 37 38 39 40 40 41 42 42 43 44
27 27 27 28 28 28 28 28 28 29 29 29 29 29 30 31 31 32 32 32 32 32 32 32 33 33 33 33 34 35 35 36 36 37 37 38 38 39 39 40 41 42 42 43
26 26 27 28 28 28 28 28 28 28 29 28 29 29 30 30 30 31 32 32 33 33 33 33 34 34 34 35 35 35 35 35 36 37 37 37 38 38 39 39 40 40 41 41
26 27 28 28 27 28 27 27 28 28 28 28 29 29 30 30 31 32 32 32 32 33 33 33 34 34 35 35 35 34 34 35 35 36 37 37 38 38 38 39 39 39 39 40
25 26 26 26 25 26 25 26 27 28 28 28 28 28 29 30 31 31 31 31 31 31 31 32 32 32 33 33 33 34 34 34 35 35 36 36 36 37 38 38 39 39 39 40
Wind_Direction
269 268 268 269 269 269 268 267 267 265 265 265 265 265 264 264 265 265 265 265 264 264 265 264 263 263 262 263 263 262 261 260 259 259 257 256 256 255 254 255 255 256 256 257
270 269 270 270 270 269 268 268 268 267 266 267 266 266 266 265 265 265 264 263 264 264 264 264 263 262 262 262 262 262 261 260 259 258 257 257 256 255 256 256 256 257 257 258
271 272 271 271 270 269 269 270 270 270 269 268 269 267 266 266 265 264 263 262 262 263 263 263 263 263 262 262 262 262 261 260 259 258 259 258 258 258 259 260 258 258 259 259
272 271 270 270 270 270 271 272 272 271 271 270 270 270 267 267 266 265 264 263 262 262 262 262 263 263 263 262 262 261 261 260 260 259 259 260 259 259 261 261 260 259 259 259
274 273 272 270 270 271 273 273 272 272 272 271 270 271 269 268 267 266 265 264 263 262 262 262 262 263 262 262 262 262 261 261 261 260 260 260 260 261 261 261 261 261 262 262
274 273 273 272 272 272 273 273 272 272 272 271 272 273 272 270 270 268 267 265 264 263 263 263 263 262 262 262 262 262 263 262 262 262 262 262 262 262 262 261 261 262 262 262
276 275 275 275 274 273 273 274 275 274 272 273 274 274 275 273 272 272 270 268 266 265 264 263 263 263 262 263 263 264 263 263 263 263 264 264 263 263 263 263 262 262 262 262
279 278 276 275 275 275 274 274 274 275 276 276 275 276 277 275 274 272 270 270 268 267 266 264 264 264 264 265 264 264 264 264 264 264 263 264 264 264 265 265 264 263 263 263
281 280 278 276 274 274 274 272 273 274 275 276 276 277 276 276 275 273 271 270 269 268 267 266 265 265 265 265 266 266 265 265 265 265 264 264 264 265 265 265 265 264 264 263
282 281 279 276 274 273 274 274 273 273 275 276 276 277 278 278 277 275 274 272 270 269 269 269 267 267 266 265 266 266 266 265 264 264 265 264 265 265 265 265 265 265 265 264
282 281 280 277 274 274 273 273 273 273 273 274 276 277 278 279 278 277 275 274 273 272 271 271 270 268 268 268 267 267 267 266 265 263 263 263 264 264 264 265 266 265 265 265
283 282 281 279 278 277 276 274 273 272 272 273 275 277 278 279 279 278 276 275 274 273 272 271 271 271 270 269 268 268 267 267 265 264 263 263 264 264 264 265 265 265 266 266
282 283 282 281 280 278 278 277 275 274 272 272 273 276 278 279 279 279 278 277 276 275 274 274 273 272 272 271 270 268 267 266 265 263 263 263 263 263 264 265 265 265 266 267
280 281 281 282 281 281 280 279 277 276 275 274 274 277 277 277 278 278 278 278 277 276 275 275 275 274 273 273 272 269 267 266 265 264 264 264 265 265 264 265 265 266 267 267
279 280 281 281 281 280 280 280 279 278 278 277 276 276 276 276 277 278 279 279 278 277 276 275 275 275 274 273 272 270 267 266 265 266 266 265 266 265 264 265 266 266 267 266
278 279 279 281 281 281 279 278 279 278 278 278 277 276 275 277 277 278 279 279 279 278 277 276 275 274 274 273 271 270 268 267 267 266 266 266 266 266 266 266 266 267 267 268
279 280 281 281 280 280 278 279 279 280 279 277 276 276 276 278 279 279 279 278 279 280 279 277 276 274 273 273 272 271 270 269 269 268 268 267 267 268 268 268 267 267 269 269
280 281 281 282 281 280 281 280 280 279 278 276 275 276 277 279 280 280 280 280 280 280 279 278 276 275 274 273 273 273 272 271 271 271 270 269 269 269 269 269 269 269 270 270
280 281 282 283 283 282 282 282 281 279 278 277 276 276 277 279 280 280 280 280 281 279 278 278 277 277 276 275 274 274 274 273 273 273 272 272 271 270 270 270 270 271 271 271
280 281 281 283 284 285 286 284 282 281 281 279 278 277 277 279 281 282 282 281 280 279 278 277 277 277 278 277 276 276 274 273 273 273 273 273 273 273 273 272 272 273 273 273
280 281 282 284 285 286 287 286 284 283 283 282 281 279 279 280 281 282 283 283 281 279 279 278 278 278 278 278 278 277 276 275 274 274 274 274 274 275 275 274 275 275 276 276
282 281 280 283 284 287 286 285 283 282 282 282 281 281 281 282 282 283 284 284 282 281 280 279 280 280 279 279 279 279 278 277 276 275 275 276 275 275 275 276 276 276 277 277
281 281 281 283 285 286 285 285 284 282 281 282 281 281 283 283 283 283 283 282 282 282 281 280 280 281 281 281 280 280 280 279 278 277 277 277 277 276 277 277 277 277 278 278
282 281 283 285 286 286 285 285 285 284 284 283 283 282 283 284 284 284 283 282 282 282 282 282 282 282 282 282 282 282 282 281 280 279 279 278 278 279 279 279 279 279 279 279
284 283 285 286 287 285 284 285 285 285 285 284 283 283 283 284 285 285 284 283 283 284 283 282 283 284 284 284 283 283 283 283 283 281 280 280 279 280 280 280 279 280 280 280
284 285 287 289 288 286 285 285 285 286 287 287 286 285 285 285 286 286 285 284 284 284 284 284 285 285 286 286 285 286 286 286 285 284 283 282 281 280 280 281 280 281 281 281
Height
5711 5711 5710 5711 5710 5710 5709 5708 5708 5708 5708 5707 5707 5708 5709 5708 5708 5708 5708 5707 5707 5707 5706 5705 5705 5705 5705 5705 5705 5705 5705 5706 5706 5707 5709 5710 5712 5713 5715 5716 5718 5719 5721 5722
5702 5702 5703 5702 5701 5700 5699 5698 5698 5698 5697 5697 5696 5697 5698 5697 5697 5697 5697 5697 5696 5696 5695 5695 5694 5694 5694 5694 5694 5694 5694 5695 5696 5696 5698 5699 5700 5702 5703 5704 5706 5707 5708 5710
5693 5694 5693 5692 5691 5690 5690 5689 5689 5688 5687 5686 5685 5686 5687 5687 5686 5686 5685 5685 5685 5685 5685 5684 5684 5683 5683 5683 5683 5683 5683 5684 5685 5686 5686 5687 5688 5690 5691 5692 5693 5694 5695 5696
5684 5684 5683 5682 5682 5681 5680 5680 5679 5677 5676 5675 5675 5673 5677 5675 5675 5675 5674 5674 5674 5674 5674 5673 5673 5673 5673 5673 5672 5672 5673 5673 5674 5674 5675 5676 5677 5678 5678 5679 5680 5680 5681 5682
5675 5675 5674 5673 5673 5672 5671 5670 5668 5667 5665 5664 5664 5662 5665 5664 5664 5664 5664 5663 5663 5663 5662 5662 5662 5662 5662 5662 5662 5662 5662 5662 5663 5663 5664 5664 5665 5665 5665 5665 5666 5667 5668 5668
5666 5665 5664 5664 5663 5662 5661 5660 5658 5656 5655 5654 5655 5652 5653 5653 5653 5653 5653 5652 5652 5652 5651 5651 5651 5651 5651 5651 5651 5651 5651 5651 5652 5652 5652 5652 5652 5652 5652 5652 5653 5653 5654 5654
5657 5656 5654 5653 5653 5652 5651 5650 5647 5645 5644 5644 5645 5642 5643 5644 5643 5642 5642 5641 5641 5640 5641 5640 5640 5640 5640 5640 5640 5640 5640 5640 5640 5640 5640 5640 5640 5640 5639 5639 5639 5640 5640 5640
5647 5646 5645 5643 5643 5642 5641 5640 5639 5637 5635 5635 5634 5632 5634 5634 5632 5631 5631 5631 5630 5630 5629 5629 5629 5629 5629 5629 5629 5628 5628 5628 5628 5628 5628 5627 5627 5627 5626 5626 5626 5626 5627 5627
5637 5637 5636 5634 5633 5633 5631 5630 5629 5627 5625 5624 5623 5623 5624 5623 5622 5621 5621 5620 5619 5619 5618 5618 5617 5617 5617 5617 5617 5617 5617 5616 5616 5616 5616 5615 5615 5614 5614 5613 5613 5613 5613 5613
5627 5626 5626 5625 5624 5623 5622 5621 5619 5617 5615 5613 5613 5614 5614 5613 5612 5611 5610 5609 5608 5608 5607 5607 5606 5606 5606 5605 5605 5605 5604 5604 5604 5604 5604 5603 5603 5602 5601 5601 5601 5600 5600 5599
5618 5617 5616 5615 5614 5613 5612 5611 5609 5607 5606 5605 5603 5606 5604 5603 5601 5600 5599 5598 5598 5597 5596 5596 5595 5595 5594 5594 5593 5593 5592 5592 5591 5591 5591 5591 5590 5589 5589 5588 5588 5588 5587 5586
5608 5607 5606 5606 5604 5603 5602 5601 5600 5599 5597 5595 5594 5598 5595 5593 5591 5590 5589 5588 5587 5586 5585 5584 5584 5583 5582 5582 5581 5581 5580 5579 5579 5579 5578 5578 5578 5577 5576 5576 5575 5575 5574 5573
5600 5598 5597 5596 5597 5595 5592 5591 5590 5589 5587 5585 5584 5588 5585 5583 5581 5579 5578 5577 5576 5575 5574 5573 5572 5571 5570 5570 5569 5568 5567 5567 5566 5566 5566 5565 5565 5564 5564 5563 5562 5561 5560 5560
5590 5589 5589 5588 5585 5583 5583 5582 5580 5578 5577 5575 5576 5577 5576 5573 5570 5569 5568 5567 5565 5564 5563 5561 5560 5559 5558 5557 5557 5556 5555 5554 5554 5553 5553 5553 5552 5551 5551 5550 5549 5548 5548 5547
5580 5579 5578 5577 5575 5574 5573 5572 5570 5568 5567 5566 5566 5565 5565 5562 5561 5559 5558 5556 5555 5554 5552 5551 5549 5548 5546 5545 5544 5543 5543 5542 5541 5541 5541 5540 5540 5539 5538 5537 5536 5536 5535 5534
5570 5569 5568 5568 5566 5564 5562 5563 5561 5559 5558 5556 5555 5555 5554 5552 5550 5549 5547 5546 5544 5543 5541 5539 5538 5536 5535 5533 5532 5531 5531 5530 5530 5529 5528 5528 5527 5526 5526 5525 5524 5523 5522 5521
5561 5560 5558 5557 5556 5554 5553 5554 5552 5550 5549 5547 5546 5546 5544 5542 5540 5538 5537 5535 5534 5532 5530 5528 5527 5525 5524 5522 5521 5520 5519 5518 5518 5517 5516 5515 5515 5514 5513 5512 5511 5510 5509 5508
5551 5550 5548 5546 5546 5544 5547 5544 5542 5540 5539 5538 5536 5535 5534 5532 5530 5528 5526 5525 5523 5521 5519 5518 5516 5515 5513 5512 5511 5509 5508 5507 5506 5505 5504 5503 5502 5501 5500 5499 5498 5497 5495 5494
5542 5540 5538 5537 5535 5534 5536 5535 5532 5530 5530 5528 5527 5525 5524 5522 5521 5519 5516 5514 5512 5510 5509 5507 5506 5504 5503 5501 5500 5499 5497 5496 5495 5494 5492 5491 5490 5489 5488 5486 5485 5483 5482 5481
5533 5531 5530 5528 5526 5525 5527 5525 5522 5521 5520 5519 5517 5515 5514 5512 5511 5510 5506 5504 5502 5500 5498 5497 5496 5494 5493 5491 5490 5488 5487 5485 5484 5483 5481 5480 5478 5477 5476 5474 5472 5470 5469 5467
5524 5522 5521 5519 5517 5516 5517 5514 5512 5512 5511 5509 5506 5505 5504 5502 5501 5499 5496 5494 5492 5490 5489 5487 5486 5484 5483 5481 5479 5478 5476 5475 5473 5472 5470 5469 5467 5465 5463 5461 5459 5457 5456 5454
5515 5513 5512 5510 5508 5510 5507 5505 5503 5502 5500 5498 5496 5495 5494 5492 5491 5489 5487 5484 5482 5481 5479 5477 5476 5474 5472 5471 5469 5467 5465 5464 5462 5460 5459 5457 5455 5453 5451 5449 5447 5445 5443 5440
5506 5505 5503 5502 5503 5500 5497 5496 5494 5492 5491 5489 5487 5486 5485 5483 5481 5479 5477 5475 5473 5471 5469 5467 5465 5464 5462 5460 5458 5456 5454 5452 5450 5448 5447 5445 5443 5441 5439 5437 5435 5432 5430 5428
5498 5496 5494 5493 5493 5491 5489 5487 5485 5483 5482 5480 5479 5477 5475 5473 5471 5469 5467 5465 5463 5461 5459 5457 5455 5453 5451 5449 5447 5445 5443 5440 5438 5437 5435 5433 5431 5429 5426 5424 5422 5420 5417 5415
5489 5487 5486 5485 5484 5482 5481 5479 5477 5475 5473 5471 5470 5468 5466 5464 5462 5460 5458 5456 5453 5451 5449 5447 5445 5443 5441 5438 5436 5434 5431 5429 5427 5425 5423 5420 5418 5416 5414 5412 5409 5407 5405 5402
5482 5480 5478 5477 5476 5473 5473 5471 5468 5467 5465 5463 5461 5459 5457 5455 5453 5450 5448 5446 5444 5442 5439 5437 5435 5432 5430 5428 5425 5423 5420 5418 5416 5413 5411 5409 5406 5404 5402 5400 5397 5395 5393 5390